Weather History for K3LF - July, 2013

Change the Weather History Date:

Tuesday, July 2, 2013

  Actual Average (KSPI) Record (KSPI)
Temperature  
Mean Temperature 63 °F 76 °F  
Max Temperature 66 °F 86 °F 102 °F (1925)
Min Temperature 60 °F 65 °F 53 °F (1995)
Degree Days  
Heating Degree Days 2 0  
Month to date heating degree days 0  
Since 1 June heating degree days 15  
Since 1 July heating degree days 0  
Cooling Degree Days 0 11  
Month to date cooling degree days 22  
Year to date cooling degree days 366  
Since 1 June cooling degree days 262  
Growing Degree Days 13 (Base 50)    
Moisture  
Dew Point 59 °F    
Average Humidity 86    
Maximum Humidity 97    
Minimum Humidity 68    
Precipitation  
Precipitation 0.49 in 0.13 in 2.14 in (1952)
Month to date precipitation 0.26  
Year to date precipitation 18.73  
Snow  
Snow 0.00 in 0.00 in 0.00 in ()
Month to date snowfall 0.0  
Since 1 June snowfall 0.0  
Since 1 July snowfall 0.0  
Snow Depth -    
Sea Level Pressure  
Sea Level Pressure 30.01 in    
Wind  
Wind Speed 9 mph (North)    
Max Wind Speed 14 mph    
Max Gust Speed 18 mph    
Visibility 9 miles    
Events Rain    
T = Trace of Precipitation, MM = Missing Value Source: NWS Daily Summary

Daily Weather History Graph

Daily Weather History Graph

Search for Another Location

Airport or City:

Trip Planner

Search our weather history database for the weather conditions in past years. The results will help you decide how hot, cold, wet, or windy it might be!

Date:

Astronomy

Jul. 02, 2013 Rise Set
Actual Time 5:36 AM CDT 8:28 PM CDT
Civil Twilight 5:04 AM CDT 9:00 PM CDT
Nautical Twilight 4:24 AM CDT 9:40 PM CDT
Astronomical Twilight 3:38 AM CDT 10:27 PM CDT
Moon 1:38 AM CDT (7/2) 3:43 PM CDT (7/2)
Length of Visible Light 15h 55m
Length of Day
14h 51m
Waning Crescent, 26% of the Moon is Illuminated
Jul 2
Waning Crescent
Jul 8
New
Jul 15
First Quarter
Jul 22
Full
Jul 29
Last Quarter

Hourly Weather History & Observations

Time (CDT) Temp. Dew Point Humidity Pressure Visibility Wind Dir Wind Speed Gust Speed Precip Events Conditions
12:15 AM 65.8 °F 61.0 °F 84% 29.99 in 10.0 mi NNE 10.4 mph 17.3 mph N/A   Overcast
12:35 AM 66.2 °F 59.9 °F 80% 29.98 in 10.0 mi NE 11.5 mph 18.4 mph N/A   Overcast
12:55 AM 66.0 °F 59.0 °F 78% 29.98 in 10.0 mi NNE 11.5 mph 16.1 mph N/A   Overcast
1:15 AM 66.2 °F 57.6 °F 74% 29.98 in 10.0 mi NNE 13.8 mph 17.3 mph N/A   Mostly Cloudy
1:35 AM 66.4 °F 56.5 °F 70% 29.97 in 10.0 mi NNE 10.4 mph - N/A   Mostly Cloudy
1:55 AM 65.8 °F 55.0 °F 68% 29.97 in 10.0 mi NNE 11.5 mph - N/A   Overcast
2:15 AM 64.6 °F 55.4 °F 72% 29.97 in 10.0 mi North 9.2 mph - N/A   Mostly Cloudy
2:35 AM 64.9 °F 55.4 °F 71% 29.96 in 10.0 mi North 8.1 mph - N/A Rain Light Rain
2:55 AM 64.8 °F 55.0 °F 71% 29.96 in 10.0 mi NNE 11.5 mph - N/A   Overcast
3:15 AM 64.9 °F 54.1 °F 68% 29.96 in 10.0 mi NNE 10.4 mph 17.3 mph N/A   Overcast
3:35 AM 64.4 °F 54.5 °F 70% 29.95 in 10.0 mi NNE 11.5 mph - N/A   Overcast
3:55 AM 63.5 °F 54.9 °F 73% 29.96 in 10.0 mi NNE 8.1 mph - N/A   Mostly Cloudy
4:15 AM 63.5 °F 54.9 °F 73% 29.96 in 10.0 mi NNE 9.2 mph - N/A   Mostly Cloudy
4:35 AM 63.5 °F 55.0 °F 74% 29.97 in 10.0 mi NNE 10.4 mph - N/A   Mostly Cloudy
4:55 AM 63.5 °F 54.9 °F 73% 29.97 in 10.0 mi NNE 10.4 mph - N/A   Overcast
5:15 AM 63.0 °F 55.0 °F 75% 29.97 in 10.0 mi NNE 10.4 mph 16.1 mph N/A   Overcast
5:35 AM 63.0 °F 55.0 °F 75% 29.98 in 10.0 mi North 10.4 mph - N/A   Overcast
5:55 AM 62.8 °F 55.0 °F 76% 29.98 in 10.0 mi North 9.2 mph - N/A   Mostly Cloudy
6:15 AM 62.1 °F 55.8 °F 80% 29.98 in 10.0 mi NNE 8.1 mph - N/A Rain Light Rain
6:35 AM 61.7 °F 56.3 °F 82% 29.99 in 10.0 mi North 8.1 mph - N/A Rain Light Rain
6:55 AM 60.8 °F 57.2 °F 88% 29.99 in 7.0 mi North 8.1 mph - N/A Rain Light Rain
7:15 AM 60.4 °F 57.2 °F 89% 30.00 in 7.0 mi North 6.9 mph - 0.01 in Rain Light Rain
7:35 AM 60.4 °F 57.6 °F 90% 30.00 in 7.0 mi North 6.9 mph - 0.01 in Rain Light Rain
7:55 AM 60.4 °F 57.7 °F 91% 30.00 in 7.0 mi North 6.9 mph - 0.02 in Rain Rain
8:15 AM 61.0 °F 57.2 °F 87% 30.01 in 10.0 mi North 8.1 mph - N/A   Overcast
8:35 AM 61.3 °F 57.2 °F 86% 30.01 in 10.0 mi North 9.2 mph - N/A Rain Light Rain
8:55 AM 61.2 °F 57.0 °F 86% 30.01 in 7.0 mi North 9.2 mph - N/A Rain Light Rain
9:15 AM 61.2 °F 57.4 °F 87% 30.01 in 7.0 mi North 10.4 mph - 0.01 in Rain Light Rain
9:35 AM 61.0 °F 58.3 °F 91% 30.01 in 5.0 mi NNE 8.1 mph - 0.01 in Rain Rain
9:55 AM 60.8 °F 58.3 °F 91% 30.01 in 5.0 mi NNE 10.4 mph - 0.03 in Rain Light Rain
10:15 AM 60.6 °F 57.9 °F 91% 30.01 in 7.0 mi North 9.2 mph - 0.01 in Rain Rain
10:35 AM 61.0 °F 59.0 °F 93% 30.01 in 7.0 mi North 9.2 mph - 0.04 in Rain Light Rain
10:55 AM 61.0 °F 58.6 °F 92% 30.02 in 10.0 mi North 10.4 mph - 0.04 in Rain Light Rain
11:15 AM 61.0 °F 59.0 °F 93% 30.02 in 7.0 mi North 10.4 mph - 0.01 in Rain Light Rain
11:35 AM 61.3 °F 59.4 °F 93% 30.02 in 7.0 mi North 12.7 mph 16.1 mph 0.02 in Rain Light Rain
11:55 AM 61.2 °F 59.2 °F 93% 30.01 in 7.0 mi North 13.8 mph 18.4 mph 0.03 in Rain Rain
12:15 PM 61.2 °F 59.9 °F 96% 30.02 in 4.0 mi North 11.5 mph - 0.04 in Rain Rain
12:35 PM 61.7 °F 60.1 °F 94% 30.03 in 7.0 mi North 10.4 mph - 0.09 in Rain Light Rain
12:55 PM 61.3 °F 59.9 °F 95% 30.03 in 7.0 mi North 13.8 mph 17.3 mph 0.10 in Rain Light Rain
1:15 PM 61.7 °F 60.3 °F 95% 30.02 in 4.0 mi North 10.4 mph - 0.03 in Rain Heavy Rain
1:35 PM 61.3 °F 60.3 °F 96% 30.02 in 4.0 mi North 9.2 mph - 0.10 in Rain Heavy Rain
1:55 PM 61.9 °F 61.0 °F 97% 30.03 in 5.0 mi North 6.9 mph - 0.17 in Rain Rain
2:15 PM 62.6 °F 61.5 °F 96% 30.02 in 5.0 mi NNW 9.2 mph - 0.02 in Rain Rain
2:35 PM 63.1 °F 61.7 °F 95% 30.02 in 7.0 mi North 6.9 mph - 0.03 in Rain Rain
2:55 PM 63.9 °F 62.4 °F 95% 30.02 in 5.0 mi North 9.2 mph - 0.06 in Rain Rain
3:15 PM 63.7 °F 61.5 °F 93% 30.02 in 7.0 mi North 10.4 mph - 0.01 in Rain Light Rain
3:35 PM 63.7 °F 62.2 °F 95% 30.02 in 5.0 mi NNW 8.1 mph - 0.03 in Rain Rain
3:55 PM 63.7 °F 61.9 °F 94% 30.02 in 7.0 mi North 6.9 mph - 0.04 in Rain Light Rain
4:15 PM 64.0 °F 62.1 °F 93% 30.02 in 7.0 mi North 8.1 mph - N/A Rain Light Rain
4:35 PM 64.2 °F 61.7 °F 91% 30.02 in 10.0 mi North 8.1 mph - N/A   Overcast
4:55 PM 65.1 °F 62.8 °F 92% 30.02 in 10.0 mi North 6.9 mph - N/A   Mostly Cloudy
5:15 PM 65.7 °F 62.8 °F 90% 30.02 in 10.0 mi North 5.8 mph - N/A Rain Light Rain
5:35 PM 65.5 °F 61.0 °F 85% 30.01 in 10.0 mi North 4.6 mph - N/A   Overcast
5:55 PM 66.2 °F 62.2 °F 87% 30.01 in 10.0 mi Calm Calm - N/A   Overcast
6:15 PM 66.2 °F 60.8 °F 83% 30.01 in 10.0 mi North 5.8 mph - N/A   Overcast
6:35 PM 66.6 °F 61.0 °F 82% 30.01 in 10.0 mi North 5.8 mph - N/A   Mostly Cloudy
6:55 PM 66.6 °F 61.5 °F 84% 30.01 in 10.0 mi NNE 4.6 mph - N/A   Scattered Clouds
7:15 PM 66.2 °F 61.0 °F 83% 30.01 in 10.0 mi North 4.6 mph - N/A   Scattered Clouds
7:35 PM 65.7 °F 60.6 °F 84% 30.02 in 10.0 mi NNE 5.8 mph - N/A   Scattered Clouds
7:55 PM 65.1 °F 59.7 °F 83% 30.02 in 10.0 mi North 5.8 mph - N/A   Scattered Clouds
8:15 PM 63.9 °F 59.0 °F 84% 30.02 in 10.0 mi North 4.6 mph - N/A   Scattered Clouds
8:35 PM 63.5 °F 58.8 °F 85% 30.02 in 10.0 mi NNE 5.8 mph - N/A   Clear
8:55 PM 63.1 °F 58.5 °F 85% 30.02 in 10.0 mi North 5.8 mph - N/A   Scattered Clouds
9:15 PM 62.6 °F 59.0 °F 88% 30.03 in 10.0 mi North 3.5 mph - N/A   Clear
9:35 PM 62.6 °F 59.0 °F 88% 30.03 in 10.0 mi North 4.6 mph - N/A   Scattered Clouds
9:55 PM 61.9 °F 59.2 °F 91% 30.04 in 10.0 mi North 3.5 mph - N/A   Clear
10:15 PM 61.9 °F 59.2 °F 91% 30.05 in 10.0 mi North 4.6 mph - N/A   Scattered Clouds
10:35 PM 61.7 °F 59.5 °F 93% 30.04 in 10.0 mi NNW 4.6 mph - N/A   Scattered Clouds
10:55 PM 61.3 °F 59.4 °F 93% 30.04 in 10.0 mi North 4.6 mph - N/A   Clear
11:15 PM 61.3 °F 59.5 °F 94% 30.04 in 10.0 mi NNW 4.6 mph - N/A   Scattered Clouds
11:35 PM 61.7 °F 59.5 °F 93% 30.04 in 10.0 mi NNW 4.6 mph - N/A   Mostly Cloudy
11:55 PM 61.7 °F 59.4 °F 92% 30.04 in 10.0 mi NNW 4.6 mph - N/A   Overcast